Forrest,

8:41 PM AWST on January 19, 2018 (GMT +0800)
Forrest

Weather History for YFRT - January, 2013

Change the Weather History Date:

Saturday, January 12, 2013

  Actual Average Record
Temperature  
Mean Temperature 72 °F -  
Max Temperature 77 °F - - ()
Min Temperature 66 °F - - ()
Cooling Degree Days 6    
Growing Degree Days 22 (Base 50)    
Moisture  
Dew Point 60 °F    
Average Humidity 69    
Maximum Humidity 94    
Minimum Humidity 43    
Precipitation  
Precipitation 0.00 in - - ()
Sea Level Pressure  
Sea Level Pressure 29.94 in    
Wind  
Wind Speed 13 mph ()    
Max Wind Speed 21 mph    
Max Gust Speed -    
T = Trace of Precipitation, MM = Missing Value Source: Averaged Metar Reports

Daily Weather History Graph

Daily Weather History Graph

Search for Another Location

Airport or City:

Trip Planner

Search our weather history database for the weather conditions in past years. The results will help you decide how hot, cold, wet, or windy it might be!

Date:

Astronomy

Jan. 12, 2013 Rise Set
Actual Time 4:36 AM AWST 6:34 PM AWST
Civil Twilight 4:09 AM AWST 7:01 PM AWST
Nautical Twilight 3:36 AM AWST 7:34 PM AWST
Astronomical Twilight 3:01 AM AWST 8:10 PM AWST
Moon 4:53 AM AWST (1/12) 6:45 PM AWST (1/12)
Length of Visible Light 14h 52m
Length of Day
13h 58m
New Moon, 0% of the Moon is Illuminated
Jan 12
New Moon
Jan 19
First Quarter
Jan 27
Full
Feb 3
Last Quarter
Feb 10
New

Hourly Weather History & Observations

Time (AWST) Temp. Dew Point Humidity Pressure Visibility Wind Dir Wind Speed Gust Speed Precip Events Conditions
12:00 AM 67 °F 58 °F 66% 29.89 in - ESE 12.7 mph - -  
12:00 AM 66.2 °F 59.0 °F 78% 29.92 in - ESE 12.7 mph - N/A   Unknown
1:00 AM 66.2 °F 59.0 °F 78% 29.92 in - SE 12.7 mph - N/A   Unknown
2:00 AM 67 °F 60 °F 73% 29.88 in - SE 12.7 mph - -  
2:00 AM 66.2 °F 60.8 °F 83% 29.89 in - SE 12.7 mph - N/A   Unknown
3:00 AM 67 °F 60 °F 72% 29.91 in - ESE 10.4 mph - -  
3:00 AM 66.2 °F 60.8 °F 83% 29.92 in - ESE 10.4 mph - N/A   Unknown
4:00 AM 66.2 °F 60.8 °F 83% 29.92 in - ESE 13.8 mph - N/A   Unknown
5:00 AM 67 °F 61 °F 76% 29.94 in - SE 11.5 mph - -  
5:00 AM 66.2 °F 60.8 °F 83% 29.95 in - SE 11.5 mph - N/A   Unknown
6:00 AM 68 °F 62 °F 74% 29.95 in - ESE 13.8 mph - -  
6:00 AM 68.0 °F 60.8 °F 78% 29.95 in - ESE 13.8 mph - N/A   Unknown
7:00 AM 68.0 °F 60.8 °F 78% 29.98 in - SE 13.8 mph - N/A   Unknown
8:00 AM 69 °F 58 °F 60% 29.97 in - SE 15.0 mph - -  
8:00 AM 68.0 °F 59.0 °F 73% 29.98 in - SE 15.0 mph - N/A   Unknown
9:00 AM 69 °F 58 °F 60% 29.97 in - ESE 15.0 mph - -  
9:00 AM 69.8 °F 59.0 °F 68% 29.98 in - ESE 15.0 mph - N/A   Unknown
10:00 AM 69.8 °F 60.8 °F 73% 29.98 in - SE 13.8 mph - N/A   Unknown
11:00 AM 74 °F 60 °F 52% 29.95 in - ESE 13.8 mph - -  
11:00 AM 73.4 °F 59.0 °F 61% 29.98 in - ESE 13.8 mph - N/A   Unknown
12:00 PM 75 °F 58 °F 46% 29.94 in - SSE 15.0 mph - -  
12:00 PM 75.2 °F 59.0 °F 57% 29.95 in - SSE 15.0 mph - N/A   Unknown
1:00 PM 77.0 °F 59.0 °F 54% 29.95 in - SSE 15.0 mph - N/A   Unknown
2:00 PM 76 °F 58 °F 43% 29.91 in - SSE 17.3 mph - -  
2:00 PM 77.0 °F 57.2 °F 50% 29.92 in - SSE 17.3 mph - N/A   Unknown
3:00 PM 76 °F 58 °F 43% 29.91 in - SSE 17.3 mph - -  
3:00 PM 75.2 °F 57.2 °F 53% 29.92 in - SSE 17.3 mph - N/A   Unknown
4:00 PM 73.4 °F 57.2 °F 57% 29.92 in - SSE 20.7 mph - N/A   Unknown
5:00 PM 71 °F 56 °F 50% 29.93 in - SSE 18.4 mph - -  
5:00 PM 71.6 °F 55.4 °F 57% 29.95 in - SSE 18.4 mph - N/A   Unknown
6:00 PM 69 °F 58 °F 59% 29.94 in - SSE 20.7 mph - -  
6:00 PM 69.8 °F 57.2 °F 64% 29.95 in - SSE 20.7 mph - N/A   Unknown
7:00 PM 68.0 °F 59.0 °F 73% 29.98 in - SE 16.1 mph - N/A   Unknown
8:00 PM 67 °F 64 °F 85% 29.95 in - SE 17.3 mph - -  
8:00 PM 68.0 °F 64.4 °F 88% 29.98 in - SE 17.3 mph - N/A   Unknown
9:00 PM 67 °F 60 °F 73% 29.96 in - SE 19.6 mph - -  
9:00 PM 68.0 °F 60.8 °F 78% 29.98 in - SE 19.6 mph - N/A   Unknown
10:00 PM 66.2 °F 62.6 °F 88% 29.95 in - SE 18.4 mph - N/A   Unknown
11:00 PM 67 °F 64 °F 86% 29.93 in - ESE 18.4 mph - -  
11:00 PM 66.2 °F 64.4 °F 94% 29.95 in - ESE 18.4 mph - N/A   Unknown